ULLI Airport Information

Runway Information
Runway 10L Length 11146 ft width 197 ft
Elevation 59 ft Threshold 0 ft Heading 106
Runway 28R Length 11146 ft Width 197 ft
Elevation 66 ft Threshold 0 ft Heading 286
Runway 10R Length 12402 ft width 197 ft
Elevation 66 ft Threshold 0 ft Heading 106
Runway 28L Length 12402 ft Width 197 ft
Elevation 79 ft Threshold 0 ft Heading 286
Airport Frequencies
Type APP Name PETERBURG Frequency 129.8 MHZ
Type ATIS Name ATIS Frequency 127.3 MHZ
Type GND Name TAXIING Frequency 121.7 MHZ
Type RDR Name KRUG Frequency 120.3 MHZ
Type TWR Name TWR Frequency 118.1 MHZ
Airport Navaids
Type NDB Name Pulkovo Frequency 342 KHZ
Type NDB Name Pulkovo Frequency 525 KHZ
Type NDB Name Pulkovo Frequency 277 KHZ
Type NDB Name Pulkovo Frequency 303 KHZ
Type VOR-DME Name Sankt-Peterburg Frequency 113400 KHZ
Airport Weather Information & NOTAM
ADDS - METARS form results

(1140 UTC 17 July 2018)
 
METAR text: ULLI 171130Z 07007G12MPS 030V100 CAVOK 30/12 Q1014 R10R/090060 NOSIG
Conditions at: ULLI (ST PETERSBURG , RU) observed 1130 UTC 17 July 2018
Temperature: 30.0°C (86°F)
Dewpoint: 12.0°C (54°F) [RH = 33%]
Pressure (altimeter): 29.94 inches Hg (1014.0 mb)
Winds: from the ENE (70 degrees) at 16 MPH (14 knots; 7.3 m/s)
gusting to 26 MPH (23 knots; 12.0 m/s)
Visibility: 6 or more miles (10+ km)
Ceiling: ceiling and visibility are OK
Clouds: unknown
Weather: no significant weather observed at this time

METAR text: ULLI 171100Z 07007MPS CAVOK 30/12 Q1014 R10R/090060 NOSIG
Conditions at: ULLI (ST PETERSBURG , RU) observed 1100 UTC 17 July 2018
Temperature: 30.0°C (86°F)
Dewpoint: 12.0°C (54°F) [RH = 33%]
Pressure (altimeter): 29.94 inches Hg (1014.0 mb)
Winds: from the ENE (70 degrees) at 16 MPH (14 knots; 7.3 m/s)
Visibility: 6 or more miles (10+ km)
Ceiling: ceiling and visibility are OK
Clouds: unknown
Weather: no significant weather observed at this time